This demonstration page uses our WeatherBlox Daily Observations layout. Learn more.

Left ArrowRight Arrow

38.89511, -77.03637

Hourly Observations for April 28, 2021

Temp ( °F °C ) Dew Point ( °F °C ) Humidity (%) Winds ( mph kmh ) Pressure ( in mb ) Visibility ( mi km ) Precip ( " mm )
12:52 am 00:52 Mostly Cloudy 66 18.9 56 13.3 70 70 S 7 11 29.91 1013 10 16 0.00 0.00
1:52 am 01:52 Mostly Cloudy 66 18.9 55 12.8 68 68 S 7 11 29.91 1013 10 16 0.00 0.00
2:52 am 02:52 Mostly Cloudy 67 19.4 54 12.2 63 63 SSE 5 7 29.91 1013 10 16 0.00 0.00
3:52 am 03:52 Mostly Cloudy 65 18.3 55 12.8 70 70 SSW 7 11 29.91 1013 10 16 0.00 0.00
4:52 am 04:52 Mostly Cloudy 64 17.8 55 12.8 73 73 SSE 5 7 29.92 1013 9 14 0.00 0.00
5:52 am 05:52 Cloudy 64 17.8 55 12.8 73 73 WSW 5 7 29.94 1014 10 16 0.00 0.00
6:52 am 06:52 Cloudy 65 18.3 56 13.3 73 73 S 5 7 29.95 1014 10 16 0.00 0.00
7:52 am 07:52 Cloudy 64 17.8 57 13.9 78 78 S 7 11 29.95 1014 10 16 0.00 0.00
8:52 am 08:52 Mostly Cloudy 69 20.6 57 13.9 66 66 SSE 5 7 29.95 1014 10 16 0.00 0.00
9:52 am 09:52 Mostly Cloudy 72 22.2 58 14.4 61 61 S 9 15 29.95 1014 10 16 0.00 0.00
10:52 am 10:52 Cloudy 72 22.2 58 14.4 61 61 S 15 24 29.94 1014 10 16 0.00 0.00
11:52 am 11:52 Mostly Cloudy 75 23.9 60 15.6 60 60 S 15 24 29.93 1014 10 16 0.00 0.00
12:52 pm 12:52 Cloudy 80 26.7 60 15.6 51 51 S 13 20 29.90 1012 10 16 0.00 0.00
1:52 pm 13:52 Mostly Cloudy 82 27.8 59 15 46 46 S 14 22 29.88 1012 10 16 0.00 0.00
2:52 pm 14:52 Mostly Cloudy 85 29.4 57 13.9 39 39 S 10 17 29.86 1011 10 16 0.00 0.00
3:52 pm 15:52 Mostly Cloudy 84 28.9 57 13.9 40 40 S 10 17 29.84 1011 10 16 0.00 0.00
4:52 pm 16:52 Mostly Cloudy 81 27.2 58 14.4 45 45 S 14 22 29.81 1010 10 16 0.00 0.00
5:08 pm 17:08 Sunny 88 31.1 55 12.8 33 33 W 15 24 29.82 1010 10 16 0.00 0.00
5:52 pm 17:52 Mostly Cloudy 86 30 59 15 40 40 SSW 13 20 29.82 1010 10 16 0.00 0.00
6:52 pm 18:52 Mostly Cloudy 80 26.7 59 15 49 49 S 9 15 29.81 1010 10 16 0.00 0.00
7:52 pm 19:52 Mostly Cloudy 77 25 59 15 54 54 S 9 15 29.82 1010 10 16 0.00 0.00
8:52 pm 20:52 Mostly Cloudy 75 23.9 59 15 58 58 S 9 15 29.83 1010 10 16 0.00 0.00
9:52 pm 21:52 Mostly Cloudy 73 22.8 60 15.6 64 64 S 9 15 29.84 1011 10 16 0.00 0.00
10:52 pm 22:52 Mostly Cloudy 76 24.4 60 15.6 58 58 SW 8 13 29.85 1011 10 16 0.00 0.00
11:52 pm 23:52 Mostly Cloudy 72 22.2 60 15.6 66 66 S 9 15 29.83 1010 10 16 0.00 0.00

Powered by AerisWeather